EW4117 Weather Reports


time (UTC)temp
C
wind
direction
speed
KPH
gust
KPH
rain 1hr
cm
rain 24hr
cm
rain mn
cm
humidity
%
barometer
mb
20260510210003 8 211 0.0 3.2 0.00 0.00 0.00 68 1011.4
20260510204504 8 336 0.0 6.4 0.00 0.00 0.00 67 1011.2
20260510203002 9 360 1.6 12.9 0.00 0.00 0.00 65 1011.0
20260510201501 9 290 0.0 8.0 0.00 0.00 0.00 67 1011.0
20260510200100 10 259 1.6 14.5 0.00 0.00 0.00 62 1010.9
20260510194606 10 264 6.4 17.7 0.00 0.00 0.00 59 1010.7
20260510193102 10 248 9.7 16.1 0.00 0.00 0.00 56 1010.6
20260510191602 10 270 6.4 25.7 0.00 0.00 0.00 55 1010.6
20260510190100 11 236 9.7 20.9 0.00 0.00 0.00 52 1010.4
20260510184604 11 209 6.4 16.1 0.00 0.00 0.00 51 1010.1
20260510183055 11 250 8.0 19.3 0.00 0.00 0.00 50 1009.9
20260510181607 12 245 12.9 32.2 0.00 0.00 0.00 48 1009.8
20260510180106 12 237 8.0 40.2 0.00 0.00 0.00 47 1009.5
20260510174553 12 307 11.3 32.2 0.00 0.00 0.00 45 1009.4
20260510173056 12 225 11.3 27.4 0.00 0.00 0.00 47 1009.5
20260510171556 13 262 14.5 37.0 0.00 0.00 0.00 47 1009.6
20260510170051 13 242 12.9 30.6 0.00 0.00 0.00 47 1009.5
20260510164559 13 244 24.1 38.6 0.00 0.00 0.00 45 1009.3
20260510163049 13 255 20.9 37.0 0.00 0.00 0.00 46 1009.3
20260510161548 13 247 25.7 40.2 0.00 0.00 0.00 46 1009.2
20260510160048 13 248 16.1 32.2 0.00 0.00 0.00 49 1009.2
20260510154553 13 242 19.3 41.8 0.00 0.00 0.00 47 1009.0
20260510153051 14 259 9.7 33.8 0.00 0.00 0.00 50 1009.0
20260510151546 13 252 9.7 30.6 0.00 0.00 0.00 48 1009.2
20260510150104 13 258 11.3 24.1 0.00 0.00 0.00 48 1009.1
20260510144542 13 304 12.9 24.1 0.00 0.00 0.00 46 1009.0
20260510143040 13 265 20.9 43.5 0.00 0.00 0.00 46 1009.3
20260510141540 13 263 19.3 38.6 0.00 0.00 0.00 45 1009.5
20260510140039 13 252 16.1 37.0 0.00 0.00 0.00 46 1009.5
20260510134539 13 255 25.7 41.8 0.00 0.00 0.00 46 1009.4
20260510133041 13 253 20.9 38.6 0.00 0.00 0.00 46 1009.4
20260510131538 14 259 17.7 37.0 0.00 0.00 0.00 45 1009.3
20260510130034 14 270 14.5 32.2 0.00 0.00 0.00 46 1009.4
20260510124533 14 271 17.7 33.8 0.00 0.00 0.00 45 1009.4
20260510123033 15 245 14.5 27.4 0.00 0.00 0.00 42 1009.6
20260510121531 14 237 14.5 32.2 0.00 0.00 0.00 45 1009.7
20260510120029 14 257 8.0 30.6 0.00 0.00 0.00 43 1009.9
20260510114529 14 255 17.7 33.8 0.00 0.00 0.00 42 1010.1
20260510113027 14 250 14.5 33.8 0.00 0.00 0.00 42 1010.1
20260510111526 14 301 16.1 43.5 0.00 0.00 0.00 42 1010.4
20260510110025 15 293 9.7 25.7 0.00 0.00 0.00 44 1010.7
20260510104522 13 240 14.5 30.6 0.00 0.00 0.00 43 1010.7
20260510103022 13 259 14.5 29.0 0.00 0.00 0.00 48 1010.6
20260510101521 13 250 11.3 35.4 0.00 0.00 0.00 48 1010.7
20260510100019 12 309 12.9 32.2 0.00 0.00 0.00 50 1010.8
20260510094534 12 301 12.9 30.6 0.00 0.00 0.00 49 1010.9
20260510093017 13 292 6.4 19.3 0.00 0.00 0.00 46 1010.8
20260510091515 12 293 8.0 17.7 0.00 0.00 0.00 48 1010.9
20260510090014 12 252 8.0 16.1 0.00 0.00 0.00 44 1010.8
20260510084518 12 245 6.4 16.1 0.00 0.00 0.00 43 1010.8
20260510083011 12 239 6.4 20.9 0.00 0.00 0.00 42 1010.8
20260510081508 12 333 3.2 9.7 0.00 0.00 0.00 44 1011.1
20260510080011 11 262 0.0 6.4 0.00 0.46 0.00 48 1011.0
20260510074504 11 307 3.2 8.0 0.00 0.46 0.00 50 1011.0
20260510073005 11 250 0.0 4.8 0.00 0.46 0.00 48 1010.8
20260510071601 11 214 0.0 3.2 0.00 0.46 0.00 53 1010.7
20260510070056 9 261 1.6 4.8 0.00 0.81 0.00 55 1010.7
20260510064603 8 157 0.0 3.2 0.00 0.81 0.00 57 1010.6
20260510063055 8 139 0.0 6.4 0.00 0.81 0.00 56 1010.6
20260510061558 8 200 0.0 4.8 0.00 0.81 0.00 57 1010.5
20260510060055 8 166 0.0 9.7 0.00 1.55 0.00 57 1010.3
20260510054552 8 172 0.0 8.0 0.00 1.55 0.00 57 1010.3
20260510053052 8 226 3.2 9.7 0.00 1.55 0.00 58 1010.3
20260510051601 7 158 1.6 8.0 0.00 1.55 0.00 59 1010.0
20260510050052 8 269 8.0 17.7 0.00 2.01 0.00 58 1010.0
20260510044558 8 257 11.3 24.1 0.00 2.01 0.00 58 1010.1
20260510043046 8 264 6.4 12.9 0.00 2.01 0.00 58 1010.3
20260510041545 8 210 3.2 12.9 0.00 2.01 0.00 57 1010.2
20260510040049 8 243 6.4 17.7 0.00 2.36 0.00 57 1010.3
20260510034543 8 243 4.8 14.5 0.00 2.36 0.00 57 1010.3
20260510033040 8 238 6.4 14.5 0.00 2.36 0.00 57 1010.3
20260510031538 8 259 3.2 11.3 0.00 2.36 0.00 56 1010.0
20260510030049 7 271 3.2 9.7 0.00 2.36 0.00 57 1010.2
20260510024533 7 210 1.6 8.0 0.00 2.36 0.00 57 1010.2
20260510023031 8 308 3.2 9.7 0.00 2.36 0.00 55 1010.2
20260510021531 8 259 4.8 12.9 0.00 2.36 0.00 56 1010.2
20260510020029 8 312 4.8 11.3 0.00 2.36 0.00 55 1010.1
20260510014527 8 261 3.2 11.3 0.00 2.36 0.00 56 1010.1
20260510013025 8 313 0.0 12.9 0.00 2.36 0.00 57 1010.1
20260510011524 8 231 3.2 14.5 0.00 2.36 0.00 54 1010.3
20260510010021 8 316 4.8 14.5 0.00 2.36 0.00 55 1010.5
20260510004519 8 160 1.6 8.0 0.00 2.36 0.00 55 1010.6
20260510003031 8 131 0.0 8.0 0.00 2.36 0.00 56 1010.6
20260510001521 8 231 1.6 17.7 0.00 2.36 0.00 54 1010.7
20260510000014 8 351 0.0 9.7 0.00 2.36 0.00 55 1010.9
20260509234523 9 334 0.0 11.3 0.00 2.36 0.00 54 1011.1
20260509233010 9 298 6.4 24.1 0.00 2.36 0.00 53 1011.0
20260509231513 9 28 1.6 19.3 0.00 2.36 0.00 52 1010.9
20260509230008 10 281 8.0 20.9 0.00 2.36 0.00 52 1011.1
20260509224506 10 232 9.7 24.1 0.00 2.36 0.00 51 1011.0
20260509223004 10 291 9.7 27.4 0.00 2.36 0.00 50 1010.9
20260509221501 9 235 4.8 24.1 0.00 2.36 0.00 53 1011.1
20260509220107 9 221 6.4 17.7 0.00 2.36 2.36 54 1011.1
20260509214602 8 248 0.0 16.1 0.00 2.36 2.36 58 1011.1
20260509213127 8 346 3.2 11.3 0.00 2.36 2.36 61 1010.9
20260509211556 8 266 1.6 11.3 0.00 2.36 2.36 61 1011.0